• In Hungary
  • List of Countries
  • For 7 days
  • Water Temperature
  • Satellite Maps
  • Weather Map
  • News
  • Weather Widgets
  • user-avatar
    Login

    Hourly Weather Silosovo

    Today, 22 September, Saturday

    Time Temperature Precipitation Wind Pressure Humidity
    00:00 +9°C° 0 mm 2 mps 753 mmHg 87%
    01:00 +8°C° 0 mm 2 mps 753 mmHg 88%
    02:00 +8°C° 0 mm 2 mps 753 mmHg 87%
    03:00 +7°C° 0 mm 2 mps 753 mmHg 86%
    04:00 +6°C° 0 mm 2 mps 753 mmHg 81%
    05:00 +6°C° 0 mm 2 mps 754 mmHg 81%
    06:00 +7°C° 0 mm 2 mps 754 mmHg 81%
    07:00 +7°C° 0 mm 2 mps 754 mmHg 80%
    08:00 +9°C° 0 mm 2 mps 754 mmHg 78%
    09:00 +11°C° 0 mm 3 mps 754 mmHg 76%
    10:00 +13°C° 0 mm 3 mps 754 mmHg 74%
    11:00 +14°C° 0 mm 3 mps 754 mmHg 75%
    12:00 +16°C° 0 mm 3 mps 754 mmHg 76%
    13:00 +17°C° 0 mm 3 mps 754 mmHg 77%
    14:00 +18°C° 0 mm 3 mps 754 mmHg 78%
    15:00 +18°C° 0 mm 3 mps 754 mmHg 78%
    16:00 +19°C° 0 mm 2 mps 753 mmHg 79%
    17:00 +18°C° 0.4 mm 2 mps 753 mmHg 84%
    18:00 +16°C° 0.4 mm 2 mps 753 mmHg 89%
    19:00 +15°C° 0.4 mm 2 mps 753 mmHg 93%
    20:00 +15°C° 0.1 mm 2 mps 753 mmHg 94%
    21:00 +15°C° 0.1 mm 2 mps 753 mmHg 94%
    22:00 +14°C° 0.1 mm 2 mps 753 mmHg 95%
    23:00 +14°C° 0 mm 1 mps 753 mmHg 95%

    Tomorrow, 23 September, Sunday

    Time Temperature Precipitation Wind Pressure Humidity
    00:00 +13°C° 0 mm 1 mps 754 mmHg 95%
    01:00 +13°C° 0 mm 1 mps 754 mmHg 94%
    02:00 +13°C° 0 mm 1 mps 754 mmHg 94%
    03:00 +13°C° 0 mm 1 mps 754 mmHg 94%
    04:00 +11°C° 0 mm 0 mps 754 mmHg 94%
    05:00 +11°C° 0 mm 0 mps 754 mmHg 94%
    06:00 +11°C° 0 mm 0 mps 755 mmHg 94%
    07:00 +12°C° 0 mm 0 mps 755 mmHg 94%
    08:00 +14°C° 0 mm 1 mps 755 mmHg 89%
    09:00 +16°C° 0 mm 1 mps 755 mmHg 85%
    10:00 +19°C° 0 mm 1 mps 754 mmHg 80%
    11:00 +19°C° 0 mm 2 mps 754 mmHg 77%
    12:00 +20°C° 0 mm 2 mps 754 mmHg 73%
    13:00 +21°C° 0 mm 2 mps 754 mmHg 70%
    14:00 +21°C° 0 mm 2 mps 754 mmHg 71%
    15:00 +21°C° 0 mm 2 mps 754 mmHg 72%
    16:00 +21°C° 0 mm 2 mps 754 mmHg 72%
    17:00 +20°C° 0 mm 2 mps 754 mmHg 78%
    18:00 +18°C° 0 mm 3 mps 753 mmHg 84%
    19:00 +17°C° 0 mm 3 mps 753 mmHg 90%
    20:00 +16°C° 0 mm 3 mps 753 mmHg 91%
    21:00 +16°C° 0 mm 3 mps 753 mmHg 92%
    22:00 +14°C° 0 mm 3 mps 753 mmHg 93%
    23:00 +14°C° 0 mm 3 mps 753 mmHg 94%

    Day after tomorrow, 24 September, Monday

    Time Temperature Precipitation Wind Pressure Humidity
    00:00 +14°C° 0 mm 3 mps 752 mmHg 94%
    01:00 +14°C° 0 mm 3 mps 752 mmHg 94%
    02:00 +14°C° 0 mm 4 mps 752 mmHg 94%
    03:00 +14°C° 0 mm 4 mps 752 mmHg 94%
    04:00 +13°C° 0 mm 4 mps 752 mmHg 94%
    05:00 +13°C° 0 mm 4 mps 752 mmHg 93%
    06:00 +13°C° 0 mm 4 mps 751 mmHg 92%
    07:00 +13°C° 0 mm 4 mps 751 mmHg 92%
    08:00 +15°C° 0 mm 5 mps 751 mmHg 83%
    09:00 +16°C° 0 mm 5 mps 751 mmHg 74%
    10:00 +19°C° 0 mm 6 mps 750 mmHg 65%
    11:00 +20°C° 0 mm 6 mps 750 mmHg 59%
    12:00 +21°C° 0 mm 7 mps 750 mmHg 52%
    13:00 +22°C° 0 mm 7 mps 749 mmHg 46%
    14:00 +22°C° 0 mm 6 mps 749 mmHg 48%
    15:00 +21°C° 0 mm 6 mps 749 mmHg 50%
    16:00 +21°C° 0 mm 5 mps 749 mmHg 53%
    17:00 +20°C° 0 mm 5 mps 749 mmHg 56%
    18:00 +18°C° 0 mm 4 mps 749 mmHg 60%
    19:00 +17°C° 0 mm 4 mps 749 mmHg 63%
    20:00 +16°C° 0 mm 3 mps 749 mmHg 68%
    21:00 +14°C° 0 mm 3 mps 749 mmHg 73%
    22:00 +14°C° 0 mm 2 mps 750 mmHg 78%
    23:00 +14°C° 0 mm 2 mps 750 mmHg 80%

    25 September, Tuesday

    Time Temperature Precipitation Wind Pressure Humidity
    00:00 +13°C° 0 mm 2 mps 750 mmHg 82%
    01:00 +13°C° 0 mm 2 mps 750 mmHg 84%
    02:00 +13°C° 0 mm 2 mps 750 mmHg 86%
    03:00 +12°C° 0 mm 2 mps 750 mmHg 88%
    04:00 +10°C° 0 mm 2 mps 750 mmHg 90%
    05:00 +10°C° 0 mm 2 mps 750 mmHg 91%
    06:00 +10°C° 0 mm 2 mps 750 mmHg 91%
    07:00 +10°C° 0 mm 2 mps 750 mmHg 91%
    08:00 +12°C° 0 mm 2 mps 749 mmHg 86%
    09:00 +13°C° 0 mm 2 mps 749 mmHg 81%
    10:00 +13°C° 0 mm 3 mps 749 mmHg 76%
    11:00 +14°C° 0 mm 4 mps 749 mmHg 74%
    12:00 +15°C° 0 mm 4 mps 749 mmHg 72%
    13:00 +16°C° 0 mm 5 mps 748 mmHg 69%
    14:00 +17°C° 0 mm 4 mps 748 mmHg 70%
    15:00 +17°C° 0 mm 4 mps 748 mmHg 71%
    16:00 +16°C° 0 mm 3 mps 748 mmHg 71%
    17:00 +16°C° 0.1 mm 3 mps 748 mmHg 72%
    18:00 +14°C° 0.1 mm 3 mps 748 mmHg 74%
    19:00 +13°C° 0.1 mm 3 mps 748 mmHg 75%
    20:00 +13°C° 0.2 mm 3 mps 748 mmHg 75%
    21:00 +13°C° 0.2 mm 4 mps 747 mmHg 74%
    22:00 +13°C° 0.2 mm 4 mps 747 mmHg 74%
    23:00 +13°C° 0.1 mm 5 mps 747 mmHg 70%

    26 September, Wednesday

    Time Temperature Precipitation Wind Pressure Humidity
    00:00 +13°C° 0.1 mm 5 mps 746 mmHg 66%
    01:00 +14°C° 0.1 mm 6 mps 746 mmHg 62%
    02:00 +14°C° 0.1 mm 6 mps 746 mmHg 65%
    03:00 +13°C° 0.1 mm 5 mps 747 mmHg 68%
    04:00 +13°C° 0.1 mm 5 mps 747 mmHg 71%
    05:00 +13°C° 0.2 mm 5 mps 747 mmHg 75%
    06:00 +12°C° 0.2 mm 4 mps 748 mmHg 79%
    07:00 +11°C° 0.2 mm 4 mps 748 mmHg 84%
    08:00 +12°C° 0 mm 5 mps 749 mmHg 78%
    09:00 +12°C° 0 mm 5 mps 749 mmHg 72%
    10:00 +13°C° 0 mm 6 mps 749 mmHg 66%
    11:00 +13°C° 0 mm 6 mps 750 mmHg 64%
    12:00 +13°C° 0 mm 6 mps 750 mmHg 62%
    13:00 +13°C° 0 mm 6 mps 751 mmHg 61%
    14:00 +13°C° 0.1 mm 6 mps 751 mmHg 63%
    15:00 +12°C° 0.1 mm 5 mps 751 mmHg 65%
    16:00 +12°C° 0.1 mm 5 mps 752 mmHg 67%
    17:00 +10°C° 0 mm 5 mps 752 mmHg 69%
    18:00 +10°C° 0 mm 4 mps 752 mmHg 72%
    19:00 +10°C° 0 mm 4 mps 752 mmHg 74%
    20:00 +8°C° 0 mm 4 mps 752 mmHg 76%
    21:00 +9°C° 0 mm 3 mps 752 mmHg 77%
    22:00 +9°C° 0 mm 3 mps 752 mmHg 78%
    23:00 +8°C° 0 mm 3 mps 752 mmHg 79%

    27 September, Thursday

    Time Temperature Precipitation Wind Pressure Humidity
    00:00 +8°C° 0 mm 3 mps 752 mmHg 80%
    01:00 +8°C° 0 mm 3 mps 752 mmHg 82%
    02:00 +7°C° 0 mm 3 mps 752 mmHg 85%
    03:00 +5°C° 0 mm 3 mps 752 mmHg 89%
    04:00 +5°C° 0 mm 2 mps 752 mmHg 93%
    05:00 +4°C° 0 mm 3 mps 752 mmHg 93%
    06:00 +4°C° 0 mm 3 mps 751 mmHg 94%
    07:00 +4°C° 0 mm 3 mps 751 mmHg 94%
    08:00 +5°C° 0 mm 3 mps 751 mmHg 88%
    09:00 +6°C° 0 mm 4 mps 751 mmHg 82%
    10:00 +7°C° 0 mm 5 mps 750 mmHg 76%
    11:00 +7°C° 0.1 mm 5 mps 750 mmHg 71%
    12:00 +8°C° 0.1 mm 6 mps 750 mmHg 67%
    13:00 +8°C° 0.1 mm 6 mps 749 mmHg 63%
    14:00 +8°C° 0 mm 6 mps 749 mmHg 60%
    15:00 +9°C° 0 mm 6 mps 749 mmHg 57%
    16:00 +9°C° 0 mm 6 mps 748 mmHg 54%
    17:00 +8°C° 0 mm 6 mps 748 mmHg 57%
    18:00 +7°C° 0 mm 6 mps 748 mmHg 60%
    19:00 +7°C° 0 mm 6 mps 747 mmHg 63%
    20:00 +7°C° 0.2 mm 6 mps 747 mmHg 67%
    21:00 +6°C° 0.2 mm 7 mps 746 mmHg 70%
    22:00 +6°C° 0.2 mm 7 mps 746 mmHg 74%
    23:00 +5°C° 0.4 mm 7 mps 745 mmHg 76%
    Show more